Location: Adrasan
(36.3319°N, 30.4314°E)
Time: 10:51:05
(UTC+00:00)

Meteor 1-10 Rocket - Pass Details

Date: 28 May 2024
Orbit: 834 x 910 km, 81.3° (Epoch: 16 June)

Event Time Altitude Azimuth Distance (km) Brightness Sun altitude
Exits shadow 17:41:03 - 155° (SSE) 3,210 6.7 -6.5°
Reaches altitude 10° 17:43:07 10° 146° (SE) 2,512 6.1 -6.9°
Maximum altitude 17:47:50 27° 90° (E) 1,585 5.2 -7.7°
Drops below altitude 10° 17:52:29 10° 34° (NNE) 2,484 6.7 -8.5°
Sets 17:55:12 0° 22° (NNE) 3,413 7.5 -8.9°
